RYR1MV LEZL-LICC

Flight info

Callsign RYR1MV
Flight time N/A
Altitude 35000
Route MAR M744 MGA DCT UMUKA M744 CARBO UM744 MOS UA411 DAHRA UZ444 BNA UA411 ANB DCT TK DCT TUNEX DCT MEGAN/N0392F180 L869 PAL/N0396F190 M871 LIBRO
Aircraft B738/M-SDE2E3FGHIRWXY/LB1

Departure

Time 2026-04-24 13:36
Airport Seville Airport (LEZL)

Arrival

Time N/A
Airport Catania-Fontanarossa Airport (LICC)
Time Latitude Longitude Altitude Speed Heading
2026-04-24 13:01 37.42121 -5.90065 90 ft 0 kts 354°
2026-04-24 13:25 37.42118 -5.90064 89 ft 2 kts 354°
2026-04-24 13:26 37.42103 -5.90062 89 ft 2 kts 354°
2026-04-24 13:26 37.42088 -5.90061 89 ft 2 kts 354°
2026-04-24 13:26 37.42073 -5.90059 88 ft 2 kts 354°
2026-04-24 13:26 37.42059 -5.90055 88 ft 2 kts 320°
2026-04-24 13:27 37.42051 -5.90039 88 ft 2 kts 277°
2026-04-24 13:27 37.42052 -5.90020 88 ft 2 kts 267°
2026-04-24 13:27 37.42051 -5.90002 88 ft 2 kts 271°
2026-04-24 13:27 37.42051 -5.89991 88 ft 0 kts 269°
2026-04-24 13:31 37.42051 -5.89994 88 ft 2 kts 269°
2026-04-24 13:31 37.42044 -5.90077 88 ft 8 kts 236°
2026-04-24 13:31 37.41993 -5.90109 87 ft 10 kts 225°
2026-04-24 13:31 37.41979 -5.90248 87 ft 18 kts 270°
2026-04-24 13:32 37.41978 -5.90409 85 ft 18 kts 270°
2026-04-24 13:32 37.41978 -5.90573 84 ft 18 kts 269°
2026-04-24 13:32 37.41977 -5.90728 82 ft 18 kts 270°
2026-04-24 13:32 37.41977 -5.90877 81 ft 14 kts 270°
2026-04-24 13:33 37.41946 -5.90993 81 ft 13 kts 239°
2026-04-24 13:33 37.41900 -5.91092 80 ft 12 kts 239°
2026-04-24 13:33 37.41845 -5.91184 77 ft 13 kts 207°
2026-04-24 13:33 37.41787 -5.91133 77 ft 11 kts 93°
2026-04-24 13:34 37.41788 -5.91110 78 ft 0 kts 88°
2026-04-24 13:34 37.41788 -5.91107 78 ft 4 kts 89°
2026-04-24 13:34 37.41790 -5.90787 81 ft 69 kts 89°
2026-04-24 13:35 37.41798 -5.89922 87 ft 127 kts 89°
2026-04-24 13:35 37.41798 -5.88605 96 ft 173 kts 89°
2026-04-24 13:35 37.41823 -5.87097 312 ft 163 kts 88°
2026-04-24 13:35 37.41867 -5.85692 416 ft 161 kts 87°
2026-04-24 13:36 37.41900 -5.84263 445 ft 164 kts 91°
2026-04-24 13:36 37.41836 -5.82782 847 ft 177 kts 92°
2026-04-24 13:36 37.41805 -5.81218 1462 ft 183 kts 84°
2026-04-24 13:36 37.42064 -5.79656 2087 ft 185 kts 74°
2026-04-24 13:37 37.42413 -5.78153 2847 ft 181 kts 74°
2026-04-24 13:37 37.42738 -5.76575 3360 ft 190 kts 78°
2026-04-24 13:37 37.42862 -5.74917 3883 ft 200 kts 90°
2026-04-24 13:37 37.42813 -5.73112 4376 ft 212 kts 92°
2026-04-24 13:38 37.42760 -5.71216 4800 ft 224 kts 91°
2026-04-24 13:38 37.42733 -5.69243 5290 ft 232 kts 90°
2026-04-24 13:38 37.42717 -5.67136 5648 ft 250 kts 90°
2026-04-24 13:38 37.42701 -5.64886 6117 ft 263 kts 90°
2026-04-24 13:39 37.42683 -5.62559 6708 ft 271 kts 91°
2026-04-24 13:39 37.42662 -5.60201 7395 ft 274 kts 91°
2026-04-24 13:39 37.42639 -5.57824 8108 ft 276 kts 91°
2026-04-24 13:39 37.42616 -5.55423 8790 ft 278 kts 91°
2026-04-24 13:40 37.42592 -5.52967 9465 ft 281 kts 91°
2026-04-24 13:40 37.42568 -5.50518 10144 ft 283 kts 91°
2026-04-24 13:40 37.42542 -5.48020 10582 ft 295 kts 91°
2026-04-24 13:40 37.42514 -5.45391 10951 ft 309 kts 91°
2026-04-24 13:41 37.42485 -5.42640 11300 ft 323 kts 91°
2026-04-24 13:41 37.42450 -5.39743 11660 ft 337 kts 92°
2026-04-24 13:41 37.42045 -5.36798 11972 ft 351 kts 110°
2026-04-24 13:41 37.40742 -5.34192 12574 ft 357 kts 131°
2026-04-24 13:42 37.38942 -5.32028 13207 ft 362 kts 136°
2026-04-24 13:42 37.37053 -5.29928 13903 ft 365 kts 138°
2026-04-24 13:42 37.35097 -5.27807 14413 ft 374 kts 138°
2026-04-24 13:42 37.33138 -5.25669 15055 ft 379 kts 137°
2026-04-24 13:43 37.31157 -5.23470 15737 ft 383 kts 137°
2026-04-24 13:43 37.29160 -5.21219 16402 ft 387 kts 137°
2026-04-24 13:43 37.27155 -5.18936 17045 ft 391 kts 137°
2026-04-24 13:43 37.25131 -5.16617 17645 ft 396 kts 137°
2026-04-24 13:44 37.23801 -5.15089 18045 ft 399 kts 137°
2026-04-24 13:44 37.21061 -5.11938 18903 ft 402 kts 137°
2026-04-24 13:44 37.19002 -5.09570 19660 ft 401 kts 137°
2026-04-24 13:44 37.16949 -5.07216 20314 ft 402 kts 137°
2026-04-24 13:45 37.14888 -5.04854 20967 ft 403 kts 136°
2026-04-24 13:45 37.12815 -5.02473 21590 ft 404 kts 136°
2026-04-24 13:45 37.10743 -5.00092 22224 ft 405 kts 136°
2026-04-24 13:45 37.08659 -4.97681 22771 ft 407 kts 135°
2026-04-24 13:46 37.06730 -4.95089 23304 ft 408 kts 128°
2026-04-24 13:46 37.05049 -4.92274 23872 ft 409 kts 123°
2026-04-24 13:46 37.02152 -4.86161 24944 ft 412 kts 118°
2026-04-24 13:47 37.00804 -4.82995 25410 ft 415 kts 117°
2026-04-24 13:47 36.99470 -4.79785 25870 ft 418 kts 117°
2026-04-24 13:47 36.98120 -4.76519 26371 ft 419 kts 117°
2026-04-24 13:47 36.96780 -4.73294 26852 ft 420 kts 118°
2026-04-24 13:48 36.95443 -4.70087 27317 ft 422 kts 118°
2026-04-24 13:48 36.94058 -4.66784 27708 ft 425 kts 118°
2026-04-24 13:48 36.92669 -4.63484 28085 ft 429 kts 118°
2026-04-24 13:48 36.91279 -4.60192 28628 ft 428 kts 118°
2026-04-24 13:49 36.89870 -4.56865 28974 ft 432 kts 118°
2026-04-24 13:49 36.88442 -4.53497 29347 ft 434 kts 118°
2026-04-24 13:49 36.87029 -4.50167 29698 ft 437 kts 118°
2026-04-24 13:49 36.85608 -4.46824 30144 ft 437 kts 118°
2026-04-24 13:50 36.84174 -4.43452 30546 ft 438 kts 118°
2026-04-24 13:50 36.82805 -4.40042 30954 ft 438 kts 115°
2026-04-24 13:50 36.81647 -4.36565 31329 ft 440 kts 111°
2026-04-24 13:50 36.80704 -4.32919 31733 ft 440 kts 108°
2026-04-24 13:51 36.79924 -4.29269 32166 ft 440 kts 106°
2026-04-24 13:51 36.79216 -4.25573 32579 ft 439 kts 105°
2026-04-24 13:51 36.78538 -4.21813 32971 ft 439 kts 104°
2026-04-24 13:51 36.77882 -4.18107 33267 ft 440 kts 104°
2026-04-24 13:52 36.77667 -4.16882 33393 ft 440 kts 104°